Weather History for Toledo Metcalf, OH

Change the Weather History Date:

Saturday, March 16, 2013

  Actual Average (KTOL) Record (KTOL)
Temperature  
Mean Temperature 32 °F 38 °F  
Max Temperature 36 °F 47 °F 78 °F (1945)
Min Temperature 30 °F 28 °F 2 °F (1900)
Degree Days  
Heating Degree Days 32 27  
Month to date heating degree days 484  
Since 1 July heating degree days 5060  
Cooling Degree Days 0 0  
Month to date cooling degree days 0  
Year to date cooling degree days 0  
Moisture  
Dew Point 30 °F    
Average Humidity 89    
Maximum Humidity 100    
Minimum Humidity 75    
Precipitation  
Precipitation 0.07 in 0.08 in 0.44 in (1984)
Month to date precipitation 1.20  
Year to date precipitation 5.32  
Snow  
Snow 0.00 in 0.20 in - ()
Month to date snowfall 3.6  
Since 1 July snowfall 34.1  
Snow Depth -    
Sea Level Pressure  
Sea Level Pressure 29.85 in    
Wind  
Wind Speed 8 mph (NNE)    
Max Wind Speed 14 mph    
Max Gust Speed 22 mph    
Visibility 6 miles    
Events Rain , Snow    
T = Trace of Precipitation, MM = Missing Value Source: NWS Daily Summary

Daily Weather History Graph

Daily Weather History Graph

Search for Another Location

Airport:

Trip Planner

Search our weather history database for the weather conditions in past years. The results will help you decide how hot, cold, wet, or windy it might be!

Date:

Astronomy

Mar. 16, 2013 Rise Set
Actual Time 7:43 AM EDT 7:41 PM EDT
Civil Twilight 7:15 AM EDT 8:09 PM EDT
Nautical Twilight 6:43 AM EDT 8:41 PM EDT
Astronomical Twilight 6:11 AM EDT 9:14 PM EDT
Moon 10:08 AM EDT (3/16) No Moon Set
Length of Visible Light 12h 53m
Length of Day
11h 58m
Waxing Crescent, 23% of the Moon is Illuminated
Mar 16
Waxing Crescent
Mar 19
First Quarter
Mar 27
Full
Apr 3
Last Quarter
Apr 10
New

Hourly Weather History & Observations

Time (EDT) Temp. Windchill Dew Point Humidity Pressure Visibility Wind Dir Wind Speed Gust Speed Precip Events Conditions
12:23 AM 35.6 °F 29.9 °F 33.8 °F 93% 29.83 in 3.0 mi East 6.9 mph - 0.00 in   Overcast
12:53 AM 35.1 °F 27.9 °F 33.1 °F 92% 29.83 in 3.0 mi East 9.2 mph - 0.00 in   Overcast
1:53 AM 35.1 °F 30.1 °F 33.1 °F 92% 29.82 in 3.0 mi East 5.8 mph - 0.00 in Rain Light Rain
2:07 AM 35.6 °F 30.7 °F 33.8 °F 93% 29.80 in 2.5 mi ENE 5.8 mph - 0.01 in Snow Light Snow
2:53 AM 34.0 °F 27.2 °F 32.0 °F 92% 29.79 in 2.5 mi ENE 8.1 mph - 0.03 in   Overcast
3:11 AM 33.8 °F 26.4 °F 32.0 °F 93% 29.77 in 2.5 mi ENE 9.2 mph - 0.00 in   Overcast
3:23 AM 33.8 °F 27.0 °F 32.0 °F 93% 29.76 in 3.0 mi ENE 8.1 mph - 0.00 in   Overcast
3:40 AM 33.8 °F 27.0 °F 32.0 °F 93% 29.73 in 2.5 mi ENE 8.1 mph - 0.00 in   Overcast
3:53 AM 34.0 °F 28.0 °F 32.0 °F 92% 29.77 in 3.0 mi ENE 6.9 mph - 0.00 in   Overcast
4:13 AM 33.8 °F 25.8 °F 33.8 °F 100% 29.76 in 2.5 mi NE 10.4 mph - N/A   Overcast
4:33 AM 33.8 °F 27.0 °F 32.0 °F 93% 29.77 in 1.8 mi NE 8.1 mph - 0.00 in   Overcast
4:53 AM 34.0 °F 26.0 °F 32.0 °F 92% 29.76 in 1.2 mi ENE 10.4 mph - 0.01 in Snow Light Snow
5:09 AM 33.8 °F 25.8 °F 30.2 °F 87% 29.73 in 3.0 mi NE 10.4 mph 19.6 mph 0.00 in Snow Light Snow
5:53 AM 32.0 °F 22.5 °F 30.9 °F 96% 29.75 in 3.0 mi NE 12.7 mph 18.4 mph 0.01 in Snow Light Snow
6:20 AM 33.8 °F 25.3 °F 30.2 °F 87% 29.73 in 9.0 mi ENE 11.5 mph - 0.01 in   Overcast
6:53 AM 33.1 °F 23.9 °F 30.9 °F 92% 29.73 in 10.0 mi ENE 12.7 mph 20.7 mph 0.01 in   Overcast
7:53 AM 33.1 °F 24.9 °F 30.9 °F 92% 29.75 in 9.0 mi ENE 10.4 mph 19.6 mph 0.00 in Rain Light Rain
8:11 AM 32.0 °F 23.6 °F 30.2 °F 93% 29.74 in 10.0 mi ENE 10.4 mph 21.9 mph 0.01 in Rain Light Freezing Rain
8:40 AM 32.0 °F 23.6 °F 30.2 °F 93% 29.74 in 10.0 mi ENE 10.4 mph - 0.01 in   Overcast
8:53 AM 32.0 °F 22.1 °F 30.0 °F 92% 29.76 in 10.0 mi ENE 13.8 mph - 0.01 in   Overcast
9:53 AM 32.0 °F 24.2 °F 28.9 °F 88% 29.75 in 4.0 mi ENE 9.2 mph 19.6 mph N/A   Overcast
10:53 AM 32.0 °F 23.0 °F 30.0 °F 92% 29.75 in 9.0 mi ENE 11.5 mph 20.7 mph N/A   Overcast
11:53 AM 32.0 °F 23.6 °F 30.0 °F 92% 29.78 in 9.0 mi NE 10.4 mph - N/A   Overcast
12:53 PM 30.9 °F 20.7 °F 28.0 °F 89% 29.82 in 8.0 mi NNE 13.8 mph 20.7 mph N/A   Overcast
1:53 PM 30.9 °F 21.7 °F 28.0 °F 89% 29.86 in 10.0 mi NNE 11.5 mph 19.6 mph 0.00 in   Overcast
2:50 PM 30.2 °F 20.8 °F 26.6 °F 86% 29.87 in 10.0 mi North 11.5 mph - N/A   Overcast
2:53 PM 30.9 °F 22.2 °F 27.0 °F 85% 29.89 in 10.0 mi NNE 10.4 mph - N/A   Overcast
3:51 PM 30.2 °F 23.4 °F 28.4 °F 93% 29.89 in 6.0 mi North 6.9 mph - N/A   Overcast
3:53 PM 30.9 °F 24.3 °F 28.0 °F 89% 29.91 in 7.0 mi North 6.9 mph - N/A   Overcast
4:08 PM 30.2 °F 21.9 °F 28.4 °F 93% 29.90 in 6.0 mi North 9.2 mph - N/A   Overcast
4:53 PM 30.9 °F 26.2 °F 28.0 °F 89% 29.94 in 2.5 mi North 4.6 mph - N/A   Overcast
5:10 PM 30.2 °F 24.3 °F 28.4 °F 93% 29.93 in 3.0 mi NNW 5.8 mph - N/A   Overcast
5:39 PM 32.0 °F 28.7 °F 28.4 °F 87% 29.94 in 5.0 mi NNE 3.5 mph - N/A   Overcast
5:53 PM 32.0 °F 27.5 °F 28.0 °F 85% 29.96 in 6.0 mi NNE 4.6 mph - N/A   Overcast
6:53 PM 32.0 °F 28.7 °F 27.0 °F 82% 29.99 in 9.0 mi North 3.5 mph - N/A   Overcast
7:53 PM 32.0 °F 28.7 °F 28.0 °F 85% 30.01 in 9.0 mi NW 3.5 mph - N/A   Overcast
8:53 PM 32.0 °F 27.5 °F 28.0 °F 85% 30.02 in 10.0 mi NW 4.6 mph - N/A   Overcast
9:17 PM 32.0 °F 26.4 °F 26.6 °F 80% 30.01 in 10.0 mi WNW 5.8 mph - N/A   Overcast
9:53 PM 32.0 °F 26.4 °F 26.1 °F 79% 30.04 in 10.0 mi NW 5.8 mph - N/A   Overcast
10:53 PM 32.0 °F 26.4 °F 25.0 °F 75% 30.05 in 10.0 mi NW 5.8 mph - N/A   Overcast
11:33 PM 30.2 °F 25.4 °F 26.6 °F 86% 30.04 in 10.0 mi WNW 4.6 mph - N/A   Overcast
11:53 PM 30.9 °F 24.3 °F 26.1 °F 82% 30.07 in 10.0 mi WNW 6.9 mph - N/A   Overcast